{"data":{"norad_id":59376,"epoch":"2026-05-25T01:23:23.637408Z","epoch_age_seconds":69979,"freshness":"FRESH","line1":"1 59376U 24062C   26145.05791247  .00001323  00000+0  56808-4 0  9996","line2":"2 59376  53.1609 260.9471 0001292  85.8410 274.2738 15.30196015121328","mean_motion":15.30196015,"eccentricity":0.0001292,"inclination_deg":53.1609,"raan_deg":260.9471,"arg_perigee_deg":85.841,"mean_anomaly_deg":274.2738,"bstar":5.6808e-5,"rev_number":12132,"period_min":94.105590779492,"perigee_km":474.34151331219,"apogee_km":476.1124225615,"semimajor_km":6853.3639679368,"source":"CELESTRAK","updated_at":"2026-05-25T13:38:18.913589Z"}}